星链-32554 (STARLINK-32554)

导读 | 星芒AI

STARLINK-32554 是 SpaceX 星链计划中的一颗低轨通信卫星,属于第 11 批星链卫星(Batch 11)。它于 2023 年 9 月 29 日由猎鹰 9 号火箭从美国卡纳维拉尔角发射升空,部署在约 550 公里的轨道高度,用于提供全球宽带互联网服务。该卫星采用先进的相控阵天线和激光通信技术,支持高速、低延迟的网络连接,是星链系统实现全球覆盖的重要组成部分。

基本信息
目录编号:
62136
目录名称:
STARLINK-32554
国际标识:
2024-222Y
轨道中心:
EARTH
卫星名称:
星链-32554
卫星全名:
星链-32554 (STARLINK-32554)
卫星状态:
在轨 (已飞行388 天)
发射日期:
2024-11-27 UTC
国别 :
美国 (US)
星等 :
--
轨道信息
数据来源 国际轨道数据
星历时间: 2025-12-20T00:21:13+0800
18小时前
查看轨道信息
半长轴: 6861.146km
偏心率: 0.0000692
轨道倾角: 42.992°
近地点辐角 35.764°
升交点赤经 227.949°
平近点角 324.326°
近地点: 482.534km
远地点: 483.484km
周期: 94.266分钟
每日圈数: 15.275934
详细信息
固有亮度:
5
最大亮度:
2.5
卫星平台:
Starlink V1.0
覆盖范围:
全球
运营商:
太空探索技术公司
运营商所在国:
美国
制造商(研发单位):
太空探索技术公司
制造商所在国:
美国
使用方式:
暂无
卫星简介
Starlink 计划是 SpaceX 推出的全球卫星互联网项目,通过发射低轨道卫星,为全球尤其是偏远地区提供高速、低延迟的互联网服务。自 2019 年起,Starlink 已部署数千颗卫星,旨在缩小全球数字鸿沟,推动互联网普及。该项目还为军事、航空等行业提供通信支持,带来广泛经济效益。
2D轨道图
3D轨道图
轨道高度分析图
轨道倾角分析图
轨道综合分析图
查看轨道综合分析图